| time (UTC) | temp F | wind direction | speed MPH | gust MPH | rain 1hr in | rain 24hr in | rain mn in | humidity % | barometer mb |
| 20260904003047 | 74 | 57 | 2.0 | 5.0 | 0.00 | 0.20 | 0.20 | 90 | 1012.9 |
| 20260904002825 | 74 | 60 | 2.0 | 6.0 | 0.00 | 0.20 | 0.20 | 90 | 1013.1 |
| 20260904002043 | 74 | 20 | 3.0 | 7.0 | 0.00 | 0.20 | 0.20 | 90 | 1013.1 |
| 20260904001814 | 74 | 80 | 3.0 | 7.0 | 0.00 | 0.20 | 0.20 | 90 | 1012.8 |
| 20260904001041 | 74 | 41 | 4.0 | 8.0 | 0.00 | 0.20 | 0.20 | 89 | 1012.8 |
| 20260904000544 | 74 | 92 | 3.0 | 8.0 | 0.00 | 0.20 | 0.20 | 89 | 1012.7 |
| 20260904000042 | 75 | 84 | 2.0 | 5.0 | 0.00 | 0.20 | 0.20 | 89 | 1012.9 |
| 20260903235539 | 75 | 13 | 3.0 | 7.0 | 0.00 | 0.20 | 0.20 | 88 | 1012.9 |
| 20260903235040 | 75 | 68 | 4.0 | 9.0 | 0.00 | 0.20 | 0.20 | 88 | 1012.9 |
| 20260903234811 | 75 | 94 | 3.0 | 9.0 | 0.00 | 0.20 | 0.20 | 88 | 1012.9 |
| 20260903234041 | 76 | 40 | 3.0 | 7.0 | 0.00 | 0.20 | 0.20 | 87 | 1013.1 |
| 20260903233540 | 76 | 45 | 3.0 | 9.0 | 0.00 | 0.20 | 0.20 | 87 | 1012.8 |
| 20260903233040 | 76 | 65 | 4.0 | 9.0 | 0.00 | 0.20 | 0.20 | 87 | 1012.7 |
| 20260903232538 | 76 | 56 | 6.0 | 12.0 | 0.00 | 0.20 | 0.20 | 87 | 1012.7 |
| 20260903232036 | 77 | 51 | 5.0 | 12.0 | 0.00 | 0.20 | 0.20 | 87 | 1013.1 |
| 20260903231537 | 78 | 0 | 4.0 | 10.0 | 0.00 | 0.20 | 0.20 | 88 | 1013.0 |
| 20260903231037 | 78 | 0 | 3.0 | 7.0 | 0.00 | 0.20 | 0.20 | 87 | 1012.9 |
| 20260903230536 | 78 | 48 | 2.0 | 5.0 | 0.00 | 0.20 | 0.20 | 87 | 1012.7 |
| 20260903230037 | 78 | 54 | 3.0 | 5.0 | 0.00 | 0.20 | 0.20 | 87 | 1012.6 |
| 20260903225536 | 78 | 17 | 2.0 | 5.0 | 0.00 | 0.20 | 0.20 | 87 | 1012.9 |
| 20260903225036 | 78 | 15 | 2.0 | 4.0 | 0.00 | 0.20 | 0.20 | 86 | 1012.8 |
| 20260903224530 | 78 | 134 | 2.0 | 5.0 | 0.00 | 0.20 | 0.20 | 86 | 1012.5 |
| 20260903224301 | 78 | 49 | 3.0 | 7.0 | 0.00 | 0.20 | 0.20 | 86 | 1012.3 |
| 20260903223528 | 78 | 11 | 3.0 | 7.0 | 0.00 | 0.20 | 0.20 | 85 | 1012.5 |
| 20260903223256 | 78 | 38 | 3.0 | 7.0 | 0.00 | 0.20 | 0.20 | 85 | 1012.5 |
| 20260903222525 | 78 | 5 | 3.0 | 6.0 | 0.00 | 0.20 | 0.20 | 84 | 1012.6 |
| 20260903222027 | 78 | 55 | 3.0 | 6.0 | 0.00 | 0.20 | 0.20 | 84 | 1012.3 |
| 20260903221519 | 78 | 81 | 2.0 | 6.0 | 0.00 | 0.20 | 0.20 | 83 | 1012.4 |
| 20260903221019 | 79 | 82 | 3.0 | 6.0 | 0.00 | 0.20 | 0.20 | 83 | 1012.4 |
| 20260903220520 | 79 | 15 | 2.0 | 5.0 | 0.00 | 0.20 | 0.20 | 83 | 1012.5 |
| 20260903220252 | 79 | 40 | 2.0 | 5.0 | 0.00 | 0.20 | 0.20 | 83 | 1012.5 |
| 20260903215518 | 79 | 5 | 2.0 | 5.0 | 0.00 | 0.20 | 0.20 | 82 | 1012.6 |
| 20260903215018 | 80 | 20 | 1.0 | 4.0 | 0.00 | 0.20 | 0.20 | 81 | 1012.5 |
| 20260903214511 | 80 | 20 | 2.0 | 4.0 | 0.00 | 0.20 | 0.20 | 81 | 1012.5 |
| 20260903214011 | 80 | 27 | 1.0 | 4.0 | 0.00 | 0.20 | 0.20 | 80 | 1012.4 |
| 20260903213508 | 80 | 26 | 1.0 | 3.0 | 0.00 | 0.20 | 0.20 | 79 | 1012.4 |
| 20260903213006 | 80 | 66 | 1.0 | 4.0 | 0.00 | 0.20 | 0.20 | 78 | 1012.3 |
| 20260903212506 | 80 | 67 | 2.0 | 5.0 | 0.00 | 0.20 | 0.20 | 78 | 1012.3 |
| 20260903212002 | 80 | 79 | 2.0 | 5.0 | 0.00 | 0.20 | 0.20 | 79 | 1012.2 |
| 20260903211500 | 80 | 96 | 2.0 | 6.0 | 0.00 | 0.20 | 0.20 | 79 | 1012.2 |
| 20260903210958 | 80 | 88 | 3.0 | 5.0 | 0.00 | 0.20 | 0.20 | 79 | 1012.2 |
| 20260903210457 | 80 | 76 | 3.0 | 7.0 | 0.00 | 0.20 | 0.20 | 78 | 1012.2 |
| 20260903210227 | 80 | 83 | 3.0 | 7.0 | 0.00 | 0.20 | 0.20 | 78 | 1012.3 |
| 20260903205456 | 80 | 44 | 2.0 | 6.0 | 0.00 | 0.20 | 0.20 | 77 | 1012.2 |
| 20260903204952 | 81 | 37 | 2.0 | 6.0 | 0.00 | 0.20 | 0.20 | 76 | 1012.4 |
| 20260903204452 | 81 | 38 | 2.0 | 5.0 | 0.00 | 0.20 | 0.20 | 76 | 1012.4 |
| 20260903203953 | 81 | 311 | 2.0 | 4.0 | 0.00 | 0.20 | 0.20 | 77 | 1012.5 |
| 20260903203452 | 81 | 57 | 1.0 | 4.0 | 0.00 | 0.20 | 0.20 | 76 | 1012.6 |
| 20260903202952 | 80 | 59 | 2.0 | 4.0 | 0.00 | 0.20 | 0.20 | 78 | 1012.7 |
| 20260903202449 | 80 | 63 | 2.0 | 3.0 | 0.00 | 0.20 | 0.20 | 79 | 1012.8 |
| 20260903201950 | 80 | 65 | 1.0 | 3.0 | 0.00 | 0.20 | 0.20 | 79 | 1012.8 |
| 20260903201718 | 80 | 55 | 1.0 | 4.0 | 0.00 | 0.20 | 0.20 | 78 | 1012.8 |
| 20260903200949 | 79 | 175 | 2.0 | 5.0 | 0.00 | 0.20 | 0.20 | 79 | 1012.7 |
| 20260903200945 | 79 | 76 | 1.0 | 4.0 | 0.00 | 0.20 | 0.20 | 79 | 1012.7 |
| 20260903195945 | 79 | 182 | 1.0 | 5.0 | 0.00 | 0.20 | 0.20 | 80 | 1012.7 |
| 20260903195444 | 79 | 142 | 1.0 | 2.0 | 0.00 | 0.20 | 0.20 | 79 | 1012.8 |
| 20260903194943 | 79 | 135 | 3.0 | 7.0 | 0.00 | 0.20 | 0.20 | 80 | 1012.7 |
| 20260903194439 | 79 | 134 | 4.0 | 8.0 | 0.00 | 0.20 | 0.20 | 81 | 1012.8 |
| 20260903193940 | 79 | 185 | 4.0 | 9.0 | 0.00 | 0.20 | 0.20 | 81 | 1012.9 |
| 20260903193440 | 79 | 196 | 4.0 | 9.0 | 0.00 | 0.20 | 0.20 | 81 | 1013.0 |
| 20260903192708 | 79 | 193 | 4.0 | 9.0 | 0.00 | 0.20 | 0.20 | 81 | 1012.8 |
| 20260903191938 | 79 | 175 | 4.0 | 9.0 | 0.00 | 0.20 | 0.20 | 81 | 1012.9 |
| 20260903191436 | 79 | 155 | 4.0 | 8.0 | 0.00 | 0.20 | 0.20 | 81 | 1013.0 |
| 20260903190934 | 79 | 197 | 4.0 | 8.0 | 0.00 | 0.20 | 0.20 | 83 | 1013.1 |
| 20260903190702 | 78 | 184 | 3.0 | 7.0 | 0.00 | 0.20 | 0.20 | 85 | 1013.2 |
| 20260903185931 | 77 | 187 | 3.0 | 9.0 | 0.00 | 0.20 | 0.20 | 86 | 1013.1 |
| 20260903185431 | 77 | 170 | 3.0 | 9.0 | 0.00 | 0.20 | 0.20 | 86 | 1013.2 |
| 20260903184930 | 77 | 142 | 2.0 | 5.0 | 0.00 | 0.20 | 0.20 | 87 | 1013.2 |
| 20260903184429 | 76 | 136 | 3.0 | 6.0 | 0.00 | 0.20 | 0.20 | 86 | 1013.2 |
| 20260903184201 | 76 | 171 | 3.0 | 8.0 | 0.00 | 0.20 | 0.20 | 87 | 1013.3 |
| 20260903183431 | 76 | 149 | 3.0 | 8.0 | 0.00 | 0.20 | 0.20 | 87 | 1013.2 |
| 20260903182927 | 77 | 140 | 2.0 | 8.0 | 0.00 | 0.20 | 0.20 | 87 | 1013.5 |
| 20260903182429 | 76 | 138 | 3.0 | 6.0 | 0.00 | 0.20 | 0.20 | 88 | 1013.4 |
| 20260903182425 | 76 | 150 | 3.0 | 8.0 | 0.00 | 0.20 | 0.20 | 87 | 1013.4 |
| 20260903182039 | 76 | 87 | 3.0 | 7.0 | 0.00 | 0.20 | 0.20 | 88 | 1013.4 |
| 20260903180922 | 76 | 95 | 3.0 | 7.0 | 0.00 | 0.20 | 0.20 | 87 | 1013.5 |
| 20260903180652 | 76 | 79 | 2.0 | 4.0 | 0.00 | 0.20 | 0.20 | 88 | 1013.8 |
| 20260903175921 | 75 | 12 | 2.0 | 5.0 | 0.00 | 0.20 | 0.20 | 90 | 1013.9 |
| 20260903175419 | 74 | 67 | 2.0 | 5.0 | 0.00 | 0.20 | 0.20 | 91 | 1013.7 |
| 20260903174920 | 74 | 61 | 2.0 | 4.0 | 0.00 | 0.20 | 0.20 | 92 | 1013.8 |
| 20260903174413 | 74 | 69 | 1.0 | 3.0 | 0.00 | 0.20 | 0.20 | 93 | 1013.7 |
| 20260903173913 | 74 | 67 | 1.0 | 3.0 | 0.00 | 0.20 | 0.20 | 94 | 1013.5 |
| 20260903173409 | 73 | 67 | 2.0 | 7.0 | 0.00 | 0.20 | 0.20 | 95 | 1013.7 |
| 20260903172907 | 73 | 69 | 3.0 | 7.0 | 0.00 | 0.20 | 0.20 | 95 | 1013.5 |
| 20260903172408 | 73 | 99 | 2.0 | 6.0 | 0.00 | 0.20 | 0.20 | 95 | 1013.3 |
| 20260903171904 | 73 | 102 | 2.0 | 6.0 | 0.00 | 0.20 | 0.20 | 95 | 1013.4 |
| 20260903171404 | 72 | 56 | 3.0 | 7.0 | 0.00 | 0.20 | 0.20 | 96 | 1013.5 |
| 20260903170904 | 72 | 107 | 5.0 | 9.0 | 0.00 | 0.20 | 0.20 | 97 | 1012.9 |
| 20260903170404 | 71 | 98 | 4.0 | 9.0 | 0.00 | 0.20 | 0.20 | 97 | 1012.5 |
| 20260903165901 | 71 | 92 | 3.0 | 7.0 | 0.00 | 0.20 | 0.20 | 97 | 1012.3 |
| 20260903165402 | 71 | 68 | 3.0 | 6.0 | 0.01 | 0.20 | 0.20 | 97 | 1012.5 |
| 20260903164859 | 71 | 95 | 3.0 | 6.0 | 0.01 | 0.20 | 0.20 | 96 | 1012.5 |
| 20260903164400 | 71 | 83 | 2.0 | 5.0 | 0.01 | 0.20 | 0.20 | 96 | 1012.6 |
| 20260903163859 | 71 | 77 | 2.0 | 6.0 | 0.01 | 0.20 | 0.20 | 97 | 1012.8 |
| 20260903163359 | 71 | 79 | 2.0 | 6.0 | 0.04 | 0.20 | 0.20 | 96 | 1012.8 |
| 20260903162900 | 71 | 63 | 3.0 | 9.0 | 0.05 | 0.20 | 0.20 | 96 | 1012.9 |
| 20260903162400 | 70 | 39 | 4.0 | 9.0 | 0.05 | 0.20 | 0.20 | 96 | 1013.2 |
| 20260903162132 | 71 | 5 | 4.0 | 9.0 | 0.05 | 0.20 | 0.20 | 96 | 1013.2 |
| 20260903161625 | 71 | 49 | 4.0 | 10.0 | 0.05 | 0.20 | 0.20 | 96 | 1013.2 |
| 20260903160853 | 71 | 9 | 3.0 | 10.0 | 0.05 | 0.20 | 0.20 | 96 | 1013.0 |
| 20260903160353 | 71 | 60 | 2.0 | 4.0 | 0.05 | 0.20 | 0.20 | 96 | 1013.1 |
| 20260903155859 | 70 | 24 | 2.0 | 5.0 | 0.05 | 0.19 | 0.19 | 96 | 1013.3 |
| 20260903155853 | 70 | 55 | 2.0 | 5.0 | 0.06 | 0.20 | 0.20 | 96 | 1013.2 |
| 20260903154853 | 70 | 10 | 2.0 | 5.0 | 0.05 | 0.19 | 0.19 | 96 | 1013.5 |
| 20260903154347 | 70 | 334 | 2.0 | 7.0 | 0.05 | 0.19 | 0.19 | 96 | 1013.5 |
| 20260903153847 | 70 | 298 | 2.0 | 7.0 | 0.07 | 0.19 | 0.19 | 96 | 1013.5 |
| 20260903153348 | 70 | 9 | 2.0 | 4.0 | 0.05 | 0.16 | 0.17 | 95 | 1013.6 |
| 20260903153120 | 70 | 321 | 3.0 | 7.0 | 0.04 | 0.15 | 0.15 | 95 | 1013.7 |
| 20260903152618 | 70 | 313 | 3.0 | 7.0 | 0.04 | 0.15 | 0.15 | 95 | 1013.6 |
| 20260903151848 | 71 | 319 | 3.0 | 6.0 | 0.04 | 0.15 | 0.15 | 95 | 1013.7 |
| 20260903151348 | 71 | 19 | 3.0 | 6.0 | 0.11 | 0.15 | 0.15 | 95 | 1013.5 |
| 20260903150848 | 71 | 324 | 2.0 | 6.0 | 0.15 | 0.15 | 0.15 | 95 | 1013.2 |
| 20260903150342 | 71 | 23 | 1.0 | 3.0 | 0.15 | 0.15 | 0.15 | 95 | 1012.9 |
| 20260903145840 | 71 | 27 | 1.0 | 4.0 | 0.14 | 0.14 | 0.14 | 94 | 1012.8 |
| 20260903145339 | 71 | 22 | 2.0 | 4.0 | 0.14 | 0.14 | 0.14 | 94 | 1012.6 |
| 20260903144839 | 71 | 25 | 2.0 | 5.0 | 0.14 | 0.14 | 0.14 | 94 | 1012.5 |
| 20260903144339 | 71 | 15 | 3.0 | 6.0 | 0.14 | 0.14 | 0.14 | 94 | 1012.7 |
| 20260903143838 | 72 | 33 | 3.0 | 6.0 | 0.12 | 0.12 | 0.13 | 93 | 1012.9 |
| 20260903143336 | 72 | 36 | 2.0 | 6.0 | 0.11 | 0.11 | 0.11 | 93 | 1012.5 |
| 20260903142833 | 72 | 69 | 2.0 | 4.0 | 0.11 | 0.11 | 0.11 | 93 | 1012.3 |
| 20260903142605 | 73 | 89 | 2.0 | 4.0 | 0.11 | 0.11 | 0.11 | 93 | 1012.4 |
| 20260903142106 | 73 | 90 | 2.0 | 6.0 | 0.11 | 0.11 | 0.11 | 93 | 1012.6 |
| 20260903141947 | 73 | 99 | 2.0 | 6.0 | 0.04 | 0.04 | 0.06 | 92 | 1012.8 |
| 20260903141446 | 73 | 115 | 1.0 | 4.0 | 0.00 | 0.00 | 0.00 | 93 | 1012.8 |
| 20260903140334 | 73 | 126 | 2.0 | 4.0 | 0.00 | 0.00 | 0.00 | 93 | 1012.7 |
| 20260903135829 | 72 | 117 | 3.0 | 7.0 | 0.00 | 0.00 | 0.00 | 93 | 1012.9 |
| 20260903135329 | 72 | 117 | 3.0 | 7.0 | 0.00 | 0.00 | 0.00 | 93 | 1013.0 |
| 20260903134828 | 72 | 108 | 4.0 | 8.0 | 0.00 | 0.00 | 0.00 | 93 | 1013.0 |
| 20260903134600 | 72 | 103 | 4.0 | 8.0 | 0.00 | 0.00 | 0.00 | 93 | 1012.9 |
| 20260903134059 | 72 | 105 | 5.0 | 10.0 | 0.00 | 0.00 | 0.00 | 94 | 1012.7 |
| 20260903133331 | 72 | 86 | 5.0 | 10.0 | 0.00 | 0.00 | 0.00 | 94 | 1012.6 |
| 20260903132825 | 72 | 101 | 4.0 | 9.0 | 0.00 | 0.00 | 0.00 | 94 | 1012.5 |
| 20260903132327 | 72 | 102 | 4.0 | 9.0 | 0.00 | 0.00 | 0.00 | 94 | 1012.4 |
| 20260903131826 | 72 | 90 | 6.0 | 10.0 | 0.00 | 0.00 | 0.00 | 94 | 1012.3 |
| 20260903131325 | 72 | 97 | 6.0 | 10.0 | 0.00 | 0.00 | 0.00 | 94 | 1012.3 |
| 20260903130825 | 72 | 95 | 5.0 | 10.0 | 0.00 | 0.00 | 0.00 | 94 | 1012.2 |
| 20260903130330 | 71 | 90 | 4.0 | 10.0 | 0.00 | 0.00 | 0.00 | 94 | 1012.3 |
| 20260903130323 | 71 | 86 | 5.0 | 8.0 | 0.00 | 0.01 | 0.00 | 94 | 1012.3 |
| 20260903125322 | 71 | 92 | 6.0 | 9.0 | 0.00 | 0.01 | 0.00 | 94 | 1012.3 |
| 20260903124826 | 71 | 98 | 5.0 | 9.0 | 0.00 | 0.01 | 0.00 | 94 | 1012.4 |
| 20260903124821 | 71 | 95 | 6.0 | 9.0 | 0.00 | 0.01 | 0.00 | 94 | 1012.3 |
| 20260903123321 | 71 | 69 | 2.0 | 5.0 | 0.00 | 0.01 | 0.00 | 94 | 1012.5 |
| 20260903122817 | 71 | 70 | 3.0 | 6.0 | 0.00 | 0.01 | 0.00 | 94 | 1012.5 |
| 20260903122550 | 71 | 73 | 3.0 | 6.0 | 0.00 | 0.01 | 0.00 | 94 | 1012.4 |
| 20260903121816 | 71 | 66 | 3.0 | 5.0 | 0.00 | 0.01 | 0.00 | 94 | 1012.4 |
| 20260903121317 | 71 | 76 | 3.0 | 5.0 | 0.00 | 0.01 | 0.00 | 94 | 1012.4 |
| 20260903120817 | 71 | 80 | 3.0 | 6.0 | 0.00 | 0.01 | 0.00 | 94 | 1012.4 |
| 20260903120320 | 71 | 74 | 3.0 | 6.0 | 0.00 | 0.01 | 0.00 | 95 | 1012.5 |
| 20260903115810 | 71 | 94 | 2.0 | 6.0 | 0.00 | 0.01 | 0.00 | 95 | 1012.4 |
| 20260903115311 | 71 | 80 | 2.0 | 6.0 | 0.00 | 0.01 | 0.00 | 95 | 1012.3 |
| 20260903114811 | 71 | 58 | 2.0 | 5.0 | 0.00 | 0.01 | 0.00 | 95 | 1012.4 |
| 20260903114535 | 71 | 59 | 2.0 | 5.0 | 0.00 | 0.01 | 0.00 | 95 | 1012.3 |
| 20260903113804 | 70 | 46 | 2.0 | 4.0 | 0.00 | 0.01 | 0.00 | 95 | 1012.3 |
| 20260903113301 | 70 | 34 | 1.0 | 4.0 | 0.00 | 0.01 | 0.00 | 95 | 1012.4 |
| 20260903112758 | 70 | 49 | 1.0 | 3.0 | 0.00 | 0.01 | 0.00 | 95 | 1012.5 |
| 20260903112257 | 70 | 65 | 1.0 | 3.0 | 0.00 | 0.01 | 0.00 | 95 | 1012.5 |
| 20260903111751 | 70 | 65 | 1.0 | 3.0 | 0.00 | 0.01 | 0.00 | 95 | 1012.4 |
| 20260903111249 | 70 | 72 | 2.0 | 3.0 | 0.00 | 0.01 | 0.00 | 95 | 1012.5 |
| 20260903110750 | 70 | 73 | 2.0 | 3.0 | 0.00 | 0.01 | 0.00 | 95 | 1012.5 |
| 20260903110522 | 70 | 90 | 1.0 | 3.0 | 0.00 | 0.01 | 0.00 | 95 | 1012.5 |
| 20260903105749 | 70 | 91 | 1.0 | 3.0 | 0.00 | 0.01 | 0.00 | 95 | 1012.5 |
| 20260903105251 | 70 | 96 | 0.0 | 1.0 | 0.00 | 0.01 | 0.00 | 95 | 1012.4 |
| 20260903104745 | 70 | 96 | 0.0 | 1.0 | 0.00 | 0.01 | 0.00 | 95 | 1012.4 |
| 20260903104246 | 70 | 96 | 0.0 | 0.0 | 0.00 | 0.01 | 0.00 | 95 | 1012.4 |
| 20260903103744 | 70 | 96 | 1.0 | 3.0 | 0.00 | 0.01 | 0.00 | 95 | 1012.4 |
| 20260903103514 | 71 | 96 | 2.0 | 3.0 | 0.00 | 0.01 | 0.00 | 95 | 1012.4 |
| 20260903102740 | 70 | 129 | 1.0 | 3.0 | 0.00 | 0.03 | 0.00 | 95 | 1012.4 |
| 20260903102241 | 70 | 130 | 1.0 | 3.0 | 0.00 | 0.05 | 0.00 | 95 | 1012.5 |
| 20260903102007 | 70 | 130 | 1.0 | 3.0 | 0.00 | 0.09 | 0.00 | 95 | 1012.4 |
| 20260903101504 | 70 | 130 | 1.0 | 3.0 | 0.00 | 0.14 | 0.00 | 95 | 1012.4 |
| 20260903100732 | 70 | 129 | 1.0 | 3.0 | 0.00 | 0.23 | 0.00 | 95 | 1012.4 |
| 20260903100232 | 70 | 128 | 0.0 | 2.0 | 0.00 | 0.24 | 0.00 | 95 | 1012.4 |
| 20260903095733 | 70 | 128 | 0.0 | 0.0 | 0.00 | 0.24 | 0.00 | 95 | 1012.5 |
| 20260903095234 | 70 | 128 | 0.0 | 0.0 | 0.00 | 0.24 | 0.00 | 95 | 1012.5 |
| 20260903095002 | 70 | 127 | 0.0 | 0.0 | 0.00 | 0.24 | 0.00 | 95 | 1012.4 |
| 20260903094229 | 70 | 125 | 0.0 | 0.0 | 0.00 | 0.24 | 0.00 | 95 | 1012.5 |
| 20260903093728 | 70 | 125 | 0.0 | 1.0 | 0.00 | 0.24 | 0.00 | 95 | 1012.5 |
| 20260903093227 | 70 | 121 | 0.0 | 1.0 | 0.00 | 0.24 | 0.00 | 95 | 1012.4 |
| 20260903092725 | 70 | 130 | 0.0 | 0.0 | 0.00 | 0.24 | 0.00 | 95 | 1012.4 |
| 20260903092225 | 70 | 129 | 0.0 | 0.0 | 0.00 | 0.24 | 0.00 | 95 | 1012.3 |
| 20260903091950 | 70 | 129 | 0.0 | 0.0 | 0.00 | 0.24 | 0.00 | 95 | 1012.3 |
| 20260903091218 | 70 | 129 | 0.0 | 0.0 | 0.00 | 0.24 | 0.00 | 95 | 1012.2 |
| 20260903090715 | 70 | 128 | 0.0 | 0.0 | 0.00 | 0.24 | 0.00 | 95 | 1012.2 |
| 20260903090214 | 70 | 128 | 0.0 | 0.0 | 0.00 | 0.24 | 0.00 | 95 | 1012.1 |
| 20260903085715 | 70 | 128 | 0.0 | 0.0 | 0.00 | 0.24 | 0.00 | 95 | 1012.2 |
| 20260903085708 | 70 | 128 | 0.0 | 0.0 | 0.00 | 0.24 | 0.00 | 95 | 1012.2 |
| 20260903085323 | 70 | 127 | 0.0 | 0.0 | 0.00 | 0.24 | 0.00 | 95 | 1012.1 |
| 20260903084204 | 70 | 127 | 0.0 | 2.0 | 0.00 | 0.24 | 0.00 | 95 | 1012.1 |
| 20260903083700 | 70 | 127 | 0.0 | 2.0 | 0.00 | 0.24 | 0.00 | 95 | 1012.1 |
| 20260903083201 | 70 | 127 | 0.0 | 0.0 | 0.00 | 0.24 | 0.00 | 95 | 1012.2 |
| 20260903082926 | 70 | 127 | 0.0 | 0.0 | 0.00 | 0.24 | 0.00 | 95 | 1012.1 |
| 20260903082154 | 70 | 127 | 0.0 | 0.0 | 0.00 | 0.24 | 0.00 | 95 | 1012.2 |
| 20260903081650 | 70 | 127 | 0.0 | 0.0 | 0.00 | 0.24 | 0.00 | 95 | 1012.3 |
| 20260903081148 | 70 | 126 | 0.0 | 0.0 | 0.00 | 0.24 | 0.00 | 95 | 1012.3 |
| 20260903080921 | 70 | 126 | 0.0 | 0.0 | 0.00 | 0.24 | 0.00 | 95 | 1012.3 |
| 20260903080148 | 70 | 126 | 0.0 | 0.0 | 0.00 | 0.24 | 0.00 | 95 | 1012.4 |
| 20260903075645 | 70 | 126 | 0.0 | 1.0 | 0.00 | 0.24 | 0.00 | 95 | 1012.4 |
| 20260903075415 | 70 | 126 | 0.0 | 1.0 | 0.00 | 0.24 | 0.00 | 94 | 1012.3 |
| 20260903074645 | 70 | 126 | 1.0 | 2.0 | 0.00 | 0.24 | 0.00 | 94 | 1012.4 |
| 20260903074142 | 70 | 126 | 1.0 | 2.0 | 0.00 | 0.24 | 0.00 | 95 | 1012.4 |
| 20260903073641 | 70 | 126 | 0.0 | 2.0 | 0.00 | 0.24 | 0.00 | 94 | 1012.4 |
| 20260903073136 | 70 | 126 | 1.0 | 2.0 | 0.00 | 0.24 | 0.00 | 94 | 1012.5 |
| 20260903072635 | 70 | 127 | 1.0 | 2.0 | 0.00 | 0.24 | 0.00 | 94 | 1012.4 |
| 20260903072133 | 70 | 127 | 1.0 | 3.0 | 0.00 | 0.24 | 0.00 | 94 | 1012.3 |
| 20260903071901 | 70 | 127 | 1.0 | 3.0 | 0.00 | 0.24 | 0.00 | 94 | 1012.4 |
| 20260903071132 | 70 | 127 | 1.0 | 3.0 | 0.00 | 0.24 | 0.00 | 94 | 1012.4 |
| 20260903070628 | 70 | 126 | 1.0 | 2.0 | 0.00 | 0.24 | 0.00 | 94 | 1012.5 |
| 20260903070126 | 70 | 126 | 0.0 | 2.0 | 0.00 | 0.24 | 0.00 | 94 | 1012.5 |
| 20260903065627 | 70 | 126 | 0.0 | 2.0 | 0.00 | 0.24 | 0.00 | 94 | 1012.6 |
| 20260903065356 | 70 | 126 | 0.0 | 2.0 | 0.00 | 0.24 | 0.00 | 94 | 1012.6 |
| 20260903064625 | 70 | 126 | 1.0 | 2.0 | 0.00 | 0.24 | 0.00 | 94 | 1012.6 |
| 20260903064126 | 70 | 126 | 1.0 | 3.0 | 0.00 | 0.24 | 0.00 | 94 | 1012.6 |
| 20260903063621 | 70 | 126 | 2.0 | 8.0 | 0.00 | 0.24 | 0.00 | 94 | 1012.6 |
| 20260903063121 | 70 | 129 | 3.0 | 8.0 | 0.00 | 0.24 | 0.00 | 94 | 1012.6 |
| 20260903062618 | 70 | 131 | 3.0 | 7.0 | 0.00 | 0.24 | 0.00 | 93 | 1012.7 |
| 20260903062119 | 70 | 134 | 3.0 | 5.0 | 0.00 | 0.24 | 0.00 | 93 | 1012.7 |
| 20260903061618 | 70 | 121 | 2.0 | 4.0 | 0.00 | 0.24 | 0.00 | 93 | 1012.6 |
| 20260903061119 | 70 | 135 | 2.0 | 4.0 | 0.00 | 0.24 | 0.00 | 93 | 1012.7 |
| 20260903060612 | 71 | 140 | 2.0 | 4.0 | 0.00 | 0.24 | 0.00 | 93 | 1012.6 |
| 20260903060113 | 71 | 141 | 2.0 | 4.0 | 0.00 | 0.24 | 0.00 | 93 | 1012.6 |
| 20260903055608 | 71 | 142 | 2.0 | 4.0 | 0.00 | 0.24 | 0.00 | 93 | 1012.6 |
| 20260903055106 | 71 | 142 | 1.0 | 4.0 | 0.00 | 0.24 | 0.00 | 93 | 1012.5 |
| 20260903054607 | 71 | 142 | 1.0 | 4.0 | 0.00 | 0.24 | 0.00 | 93 | 1012.5 |
| 20260903054102 | 71 | 148 | 1.0 | 3.0 | 0.00 | 0.24 | 0.00 | 93 | 1012.6 |
| 20260903053604 | 71 | 144 | 1.0 | 3.0 | 0.00 | 0.24 | 0.00 | 93 | 1012.5 |
| 20260903053100 | 71 | 145 | 1.0 | 3.0 | 0.00 | 0.24 | 0.00 | 93 | 1012.5 |
| 20260903052832 | 71 | 145 | 1.0 | 3.0 | 0.00 | 0.24 | 0.00 | 93 | 1012.5 |
| 20260903052100 | 71 | 146 | 2.0 | 4.0 | 0.00 | 0.24 | 0.00 | 93 | 1012.5 |
| 20260903051601 | 71 | 146 | 2.0 | 4.0 | 0.00 | 0.24 | 0.00 | 93 | 1012.4 |
| 20260903051102 | 71 | 176 | 1.0 | 5.0 | 0.00 | 0.24 | 0.00 | 93 | 1012.4 |
| 20260903051058 | 71 | 178 | 2.0 | 5.0 | 0.00 | 0.24 | 0.00 | 93 | 1012.3 |
| 20260903050059 | 71 | 134 | 0.0 | 2.0 | 0.00 | 0.24 | 0.00 | 93 | 1012.3 |
| 20260903045558 | 71 | 133 | 0.0 | 2.0 | 0.00 | 0.24 | 0.24 | 93 | 1012.3 |
| 20260903045058 | 71 | 133 | 1.0 | 5.0 | 0.00 | 0.24 | 0.24 | 93 | 1012.4 |
| 20260903044556 | 71 | 133 | 2.0 | 5.0 | 0.00 | 0.24 | 0.24 | 93 | 1012.4 |
| 20260903044057 | 71 | 133 | 3.0 | 7.0 | 0.00 | 0.24 | 0.24 | 93 | 1012.3 |
| 20260903043552 | 71 | 127 | 3.0 | 7.0 | 0.00 | 0.24 | 0.24 | 93 | 1012.3 |
| 20260903043325 | 71 | 125 | 3.0 | 8.0 | 0.00 | 0.24 | 0.24 | 93 | 1012.3 |
| 20260903042553 | 71 | 140 | 3.0 | 8.0 | 0.00 | 0.24 | 0.24 | 93 | 1012.4 |
| 20260903042052 | 71 | 137 | 2.0 | 5.0 | 0.00 | 0.24 | 0.24 | 92 | 1012.3 |
| 20260903041552 | 71 | 138 | 2.0 | 5.0 | 0.00 | 0.24 | 0.24 | 92 | 1012.2 |
| 20260903041323 | 72 | 130 | 2.0 | 4.0 | 0.00 | 0.24 | 0.24 | 92 | 1012.2 |
| 20260903040547 | 72 | 130 | 2.0 | 4.0 | 0.00 | 0.24 | 0.24 | 92 | 1012.2 |
| 20260903040318 | 72 | 126 | 2.0 | 4.0 | 0.00 | 0.24 | 0.24 | 92 | 1012.2 |
| 20260903035545 | 72 | 126 | 2.0 | 4.0 | 0.00 | 0.24 | 0.24 | 92 | 1012.2 |
| 20260903035044 | 72 | 126 | 2.0 | 4.0 | 0.00 | 0.24 | 0.24 | 92 | 1012.3 |
| 20260903034542 | 72 | 124 | 2.0 | 4.0 | 0.00 | 0.24 | 0.24 | 91 | 1012.3 |
| 20260903034043 | 72 | 128 | 2.0 | 4.0 | 0.00 | 0.24 | 0.24 | 91 | 1012.4 |
| 20260903033540 | 72 | 139 | 1.0 | 5.0 | 0.00 | 0.24 | 0.24 | 91 | 1012.4 |
| 20260903033039 | 73 | 139 | 2.0 | 5.0 | 0.00 | 0.24 | 0.24 | 91 | 1012.4 |
| 20260903032536 | 73 | 136 | 2.0 | 5.0 | 0.00 | 0.24 | 0.24 | 91 | 1012.4 |
| 20260903032036 | 73 | 127 | 2.0 | 6.0 | 0.00 | 0.24 | 0.24 | 91 | 1012.3 |
| 20260903031537 | 73 | 126 | 2.0 | 6.0 | 0.00 | 0.24 | 0.24 | 91 | 1012.4 |
| 20260903031307 | 73 | 124 | 2.0 | 5.0 | 0.00 | 0.24 | 0.24 | 90 | 1012.5 |
| 20260903030801 | 73 | 126 | 2.0 | 6.0 | 0.00 | 0.24 | 0.24 | 90 | 1012.4 |
| 20260903030031 | 73 | 126 | 3.0 | 6.0 | 0.00 | 0.24 | 0.24 | 90 | 1012.4 |
| 20260903025531 | 74 | 138 | 3.0 | 7.0 | 0.00 | 0.24 | 0.24 | 90 | 1012.5 |
| 20260903025029 | 74 | 131 | 3.0 | 7.0 | 0.00 | 0.24 | 0.24 | 89 | 1012.4 |
| 20260903024525 | 74 | 135 | 3.0 | 7.0 | 0.00 | 0.24 | 0.24 | 89 | 1012.4 |
| 20260903024027 | 74 | 138 | 3.0 | 7.0 | 0.00 | 0.24 | 0.24 | 89 | 1012.4 |
| 20260903023520 | 74 | 156 | 2.0 | 7.0 | 0.00 | 0.24 | 0.24 | 89 | 1012.3 |
| 20260903023251 | 75 | 138 | 2.0 | 7.0 | 0.00 | 0.24 | 0.24 | 89 | 1012.4 |
| 20260903022520 | 75 | 137 | 2.0 | 7.0 | 0.00 | 0.24 | 0.24 | 89 | 1012.3 |
| 20260903022020 | 75 | 128 | 3.0 | 7.0 | 0.00 | 0.24 | 0.24 | 89 | 1012.4 |
| 20260903021521 | 75 | 127 | 4.0 | 7.0 | 0.00 | 0.24 | 0.24 | 88 | 1012.2 |
| 20260903021018 | 76 | 135 | 3.0 | 5.0 | 0.00 | 0.24 | 0.24 | 88 | 1012.3 |
| 20260903020517 | 76 | 128 | 3.0 | 5.0 | 0.00 | 0.24 | 0.24 | 88 | 1012.2 |
| 20260903020016 | 76 | 129 | 3.0 | 7.0 | 0.00 | 0.24 | 0.24 | 88 | 1012.2 |
| 20260903015748 | 76 | 132 | 3.0 | 7.0 | 0.00 | 0.24 | 0.24 | 87 | 1012.1 |
| 20260903015016 | 76 | 132 | 2.0 | 5.0 | 0.00 | 0.24 | 0.24 | 87 | 1012.1 |
| 20260903014750 | 76 | 136 | 2.0 | 5.0 | 0.00 | 0.24 | 0.24 | 87 | 1012.0 |
| 20260903014012 | 76 | 135 | 3.0 | 6.0 | 0.00 | 0.24 | 0.24 | 87 | 1012.0 |
| 20260903013513 | 76 | 133 | 2.0 | 6.0 | 0.00 | 0.24 | 0.24 | 86 | 1011.9 |
| 20260903013014 | 76 | 126 | 1.0 | 5.0 | 0.00 | 0.24 | 0.24 | 86 | 1011.9 |
| 20260903012511 | 77 | 94 | 0.0 | 3.0 | 0.00 | 0.24 | 0.24 | 86 | 1011.9 |
| 20260903012013 | 77 | 94 | 0.0 | 0.0 | 0.00 | 0.24 | 0.24 | 86 | 1011.8 |
| 20260903011512 | 78 | 94 | 0.0 | 0.0 | 0.00 | 0.24 | 0.24 | 85 | 1011.7 |
| 20260903011007 | 78 | 94 | 0.0 | 1.0 | 0.00 | 0.24 | 0.24 | 84 | 1011.6 |
| 20260903010508 | 78 | 94 | 0.0 | 1.0 | 0.00 | 0.24 | 0.24 | 84 | 1011.6 |
| 20260903010008 | 79 | 94 | 0.0 | 0.0 | 0.00 | 0.24 | 0.24 | 83 | 1011.6 |
| 20260903005507 | 79 | 94 | 0.0 | 0.0 | 0.00 | 0.24 | 0.24 | 82 | 1011.5 |
| 20260903005010 | 79 | 94 | 0.0 | 0.0 | 0.00 | 0.24 | 0.24 | 80 | 1011.5 |
| 20260903004507 | 80 | 94 | 0.0 | 2.0 | 0.00 | 0.24 | 0.24 | 79 | 1011.4 |
| 20260903004005 | 80 | 94 | 1.0 | 2.0 | 0.00 | 0.24 | 0.24 | 78 | 1011.4 |
| 20260903003504 | 80 | 94 | 1.0 | 3.0 | 0.00 | 0.24 | 0.24 | 78 | 1011.4 |